RH
18 17 20 21 20 19 19 20 27 39 31 35 38 35 25 24 20 22 24 24 25 27 28 22 21 25 30 31 31 33 35 38 39 38 37 36 35 30 24 22 24 24 27 35
18 20 20 18 19 16 18 25 38 36 31 34 34 28 24 24 28 27 27 28 33 36 35 28 27 25 31 40 40 41 44 45 44 43 43 43 43 45 51 60 52 40 34 48
23 20 18 15 16 16 17 15 19 30 34 33 34 37 31 24 24 31 38 42 42 42 40 38 34 36 37 48 51 51 51 50 50 52 52 50 50 47 47 51 62 65 69 94
21 22 17 14 12 15 17 14 17 35 34 36 27 32 41 33 26 36 42 43 45 45 41 38 40 44 56 67 64 62 64 64 68 66 61 58 52 55 64 77 83 96 98 97
20 23 23 17 13 13 15 16 15 25 26 20 20 31 43 37 29 39 43 47 48 48 46 47 46 49 71 68 82 80 74 69 78 82 76 59 54 74 80 81 80 88 90 89
20 18 15 17 13 13 16 17 19 22 20 18 20 19 43 36 34 41 45 48 50 50 48 55 59 67 88 89 94 88 88 92 92 78 74 67 65 75 80 86 99 94 88 88
21 16 13 12 11 13 16 14 11 15 18 16 27 23 39 45 45 47 49 50 51 48 59 67 66 90 99 100 99 99 99 100 99 87 74 70 80 81 88 94 98 92 94 95
22 27 16 17 15 15 20 18 15 9 9 15 22 26 35 45 50 52 52 52 49 53 66 60 67 94 100 92 79 84 86 90 94 84 81 89 83 83 87 90 92 94 100 100
18 18 16 20 18 14 18 20 20 28 31 27 22 39 43 47 49 51 51 48 52 59 63 64 68 72 96 100 95 100 93 96 87 84 87 88 94 79 74 78 89 96 98 99
26 11 16 20 16 18 17 18 18 23 20 20 19 30 29 49 51 49 50 49 57 62 66 76 77 86 89 96 100 99 97 100 92 88 86 85 80 73 63 54 77 91 94 96
28 19 12 16 23 20 19 24 32 27 30 23 27 21 49 55 55 52 50 56 65 67 79 86 89 90 96 100 100 98 100 100 98 92 91 96 90 72 35 35 38 70 88 89
32 30 15 23 27 27 24 28 30 24 31 41 40 36 52 54 55 53 54 65 69 80 88 87 97 97 99 98 93 97 100 99 96 96 98 100 99 81 33 27 34 55 74 70
28 22 10 14 25 29 32 32 34 38 35 33 34 26 58 58 56 57 63 69 83 88 91 98 99 100 99 100 100 100 100 100 99 99 100 100 100 88 43 31 32 35 39 47
16 25 15 12 18 35 38 38 34 31 34 29 28 31 63 57 56 56 68 82 86 94 99 100 99 100 100 100 100 100 100 100 100 100 99 97 100 93 75 33 33 33 40 48
26 23 29 30 28 42 40 35 39 38 31 28 26 32 46 56 56 64 75 87 87 96 100 100 98 100 100 100 100 100 100 100 96 79 72 75 75 62 34 30 30 32 41 54
43 36 46 36 48 48 47 39 41 44 42 38 35 36 56 62 65 70 85 86 94 98 100 100 100 99 100 100 100 100 100 82 72 67 58 55 45 39 30 25 27 35 36 41
44 48 44 25 46 30 27 29 40 42 43 35 42 40 58 57 65 74 87 93 97 100 98 98 99 100 100 100 94 70 67 56 41 30 26 20 20 20 19 22 26 31 40 44
50 47 49 45 36 36 26 38 42 41 50 56 56 55 56 63 75 84 91 96 100 99 99 100 100 99 96 72 50 36 26 23 23 21 17 15 13 13 16 21 30 34 32 35
50 49 69 60 52 32 36 53 49 45 40 55 53 59 65 75 71 80 94 94 99 100 99 100 100 100 80 57 41 40 49 53 50 44 33 26 17 14 20 24 30 31 48 87
51 48 41 76 52 41 26 46 47 41 47 63 58 61 63 70 48 56 100 90 95 100 100 99 95 69 62 59 59 57 64 61 59 44 38 34 20 17 22 27 29 31 53 89
54 55 53 63 64 49 36 50 46 51 33 63 64 65 71 58 65 91 95 91 94 99 100 89 75 70 64 74 72 71 70 66 70 46 35 28 20 14 18 19 21 34 58 75
50 65 65 60 68 62 48 50 48 50 57 53 61 60 73 81 88 100 95 92 96 100 88 84 82 83 85 79 73 84 69 73 56 41 35 23 16 12 13 13 20 37 53 60
53 50 57 57 50 52 52 55 51 49 48 53 54 60 74 89 94 99 90 97 99 100 89 89 88 88 83 70 61 70 61 44 39 32 23 17 14 13 11 13 18 31 49 59
53 54 53 53 52 58 51 55 56 51 48 53 59 69 92 96 96 98 95 95 99 100 95 92 88 82 62 48 38 47 39 26 25 18 16 15 13 12 12 12 18 27 41 51
53 60 57 59 64 70 57 56 57 54 56 59 66 83 93 89 96 93 94 99 100 92 93 91 80 50 38 32 24 27 24 19 16 16 14 13 12 12 12 12 13 19 32 42
66 58 61 60 48 57 53 51 55 56 58 62 72 94 91 91 91 95 99 97 94 89 88 79 39 37 33 27 20 25 18 14 13 14 12 11 10 10 10 11 12 13 16 24
Wind_Speed
7 7 6 4 4 4 6 10 10 10 9 16 16 16 13 12 17 17 17 20 21 23 23 25 25 22 19 19 20 21 22 24 27 30 33 34 35 32 30 30 33 35 33 31
6 7 4 5 6 7 5 13 10 10 14 12 13 14 9 11 17 17 17 20 23 26 29 32 31 26 23 22 21 21 24 28 30 31 31 31 32 31 28 26 29 33 37 32
5 3 3 3 5 6 3 5 5 6 7 13 15 7 6 12 17 19 21 20 23 25 29 33 34 32 27 26 26 26 26 27 28 29 31 34 35 34 36 36 34 32 32 31
5 2 3 4 4 1 3 0 5 17 7 4 9 2 7 8 11 17 18 21 24 27 30 31 30 29 30 26 22 23 24 26 29 32 36 37 40 38 36 36 34 30 30 28
1 2 3 3 1 1 3 0 3 9 5 2 4 4 5 7 7 11 15 20 23 25 28 28 28 28 25 25 28 29 30 30 30 34 36 38 38 34 33 34 35 34 32 30
2 2 3 0 2 3 2 4 5 3 2 4 3 3 6 0 4 6 12 17 22 25 27 27 28 26 25 28 28 28 29 31 35 37 35 37 37 35 34 34 35 34 34 33
4 3 3 4 0 1 4 3 0 2 2 2 2 2 4 6 5 7 12 18 22 26 26 30 33 29 27 29 30 31 32 35 36 36 36 38 34 33 32 32 33 34 34 33
1 2 5 8 3 1 4 1 1 3 2 2 2 3 3 7 4 7 12 15 21 24 24 29 27 25 25 31 35 34 34 33 34 36 36 35 33 32 31 31 31 30 29 28
2 1 3 4 3 2 1 3 1 4 1 2 1 2 6 5 4 10 16 20 24 24 26 26 26 24 23 24 29 29 32 32 33 33 34 31 31 32 33 31 29 28 27 26
3 1 2 3 1 8 2 4 1 2 2 4 3 4 3 4 7 12 20 21 21 21 22 24 25 23 22 19 23 31 32 30 31 33 30 29 30 32 31 30 31 28 27 27
2 1 1 1 5 0 1 1 4 2 1 3 4 2 4 5 5 10 15 16 17 19 20 21 22 21 22 17 26 30 28 31 32 31 26 26 29 31 31 30 28 26 27 28
1 2 1 2 2 2 0 1 2 2 3 0 1 3 7 6 5 9 11 13 15 16 18 18 18 20 22 22 25 25 27 27 26 26 25 25 25 29 31 29 28 26 26 26
4 1 1 2 2 1 1 1 3 4 1 6 3 1 8 3 4 7 9 12 14 15 17 17 18 18 23 22 20 21 23 25 22 21 23 24 24 27 29 30 29 28 26 26
3 2 3 3 1 2 3 4 3 3 3 3 8 3 8 3 4 8 9 12 13 15 18 20 18 18 19 21 20 21 23 21 21 21 22 23 24 26 26 27 28 27 26 26
2 3 3 3 3 3 4 9 10 11 7 7 1 3 3 1 5 6 6 8 10 13 16 18 19 19 20 20 21 21 21 21 22 22 24 25 25 25 26 26 27 26 25 24
1 2 1 2 3 2 7 15 11 11 11 13 11 11 5 4 2 2 4 6 9 11 14 15 16 18 18 19 21 20 19 22 23 24 24 24 25 25 25 26 26 25 24 24
3 4 2 3 4 6 7 5 6 4 5 6 7 3 7 6 0 2 4 6 8 10 11 13 12 15 15 18 19 21 21 20 22 23 24 25 25 25 25 24 24 24 25 25
5 4 1 2 4 2 1 0 5 6 3 5 4 6 4 1 1 4 3 4 6 8 9 10 13 13 15 18 19 18 18 21 23 25 26 27 27 26 25 23 23 22 23 25
1 4 2 1 2 7 1 3 5 5 4 11 6 6 3 2 5 4 3 4 6 5 8 11 10 12 14 17 17 17 19 22 24 27 26 26 26 25 24 23 23 22 22 22
5 4 2 2 2 4 1 4 5 4 4 12 11 10 7 5 4 4 4 2 6 7 9 8 8 12 13 15 15 17 20 23 26 26 24 24 25 24 23 22 21 22 22 22
3 2 6 3 4 8 4 7 7 1 1 14 13 6 7 3 1 5 2 1 6 6 7 6 8 11 11 13 14 17 19 23 23 23 21 22 22 23 22 21 22 23 23 24
7 7 4 4 4 7 10 7 5 1 9 13 11 6 6 4 4 6 6 3 5 5 3 6 7 9 10 12 14 16 18 20 20 21 20 21 20 22 22 23 24 25 27 27
4 5 4 9 5 1 17 3 7 10 10 9 8 6 6 6 7 11 6 4 4 3 4 4 6 8 8 11 12 12 16 17 19 18 19 20 20 21 22 23 25 27 28 30
3 6 3 2 3 8 12 17 10 11 7 7 5 5 5 5 7 11 7 3 2 1 3 4 6 6 7 10 12 12 14 16 16 17 18 19 20 21 21 24 25 27 29 30
3 8 4 4 6 6 15 17 14 11 8 7 5 4 6 7 10 9 6 6 4 3 4 3 5 6 8 10 10 12 13 15 15 16 17 18 19 20 21 23 24 25 25 27
9 6 5 5 7 5 2 8 20 16 11 9 6 7 8 8 9 8 9 5 3 6 4 4 5 6 8 9 9 11 14 15 15 15 17 19 19 20 20 20 20 22 22 23
Wind_Direction
30 83 77 60 60 107 103 94 106 132 134 68 96 102 99 81 68 58 54 45 31 23 15 15 9 1 357 354 351 346 345 348 350 351 353 355 354 351 347 345 342 341 344 334
71 85 110 83 80 92 102 107 90 68 105 105 122 109 103 74 62 53 46 32 25 21 19 16 11 4 357 347 342 344 348 349 348 350 352 352 350 347 346 345 344 338 336 340
101 112 142 101 62 103 52 95 164 152 100 118 128 130 138 89 64 55 46 44 37 28 18 13 12 10 358 346 346 345 345 343 344 348 351 350 348 346 344 344 345 344 342 344
75 38 107 89 69 19 138 130 136 144 143 187 207 170 199 134 66 50 43 35 25 14 7 5 4 3 358 348 338 337 342 346 353 355 354 352 352 350 349 348 350 351 355 350
102 60 70 78 54 298 101 254 148 184 199 187 170 226 148 188 58 40 30 20 12 6 2 -0 1 356 354 341 343 349 354 356 358 355 353 351 353 353 353 352 353 357 357 355
59 35 46 49 123 59 115 103 62 80 145 228 118 246 170 144 57 36 17 8 2 360 360 2 2 358 0 358 351 356 360 357 353 353 355 357 357 356 358 358 359 358 358 357
8 11 340 29 166 112 61 69 289 200 206 259 65 274 56 117 76 36 5 359 359 358 3 4 1 7 10 7 3 4 7 0 358 357 355 358 1 1 3 2 1 359 360 2
114 176 2 338 56 38 38 39 109 284 252 311 297 235 148 137 87 30 11 360 360 3 4 2 5 3 360 350 356 3 3 358 356 0 3 4 5 8 9 6 4 4 4 4
160 118 330 46 4 354 94 60 78 103 52 284 159 108 179 173 42 15 8 5 4 4 2 3 4 2 357 356 356 360 358 0 2 4 6 8 8 11 12 9 8 10 9 9
168 96 6 322 130 50 41 126 179 55 267 268 223 242 233 184 5 3 4 2 360 359 1 5 6 3 3 358 357 357 360 1 4 7 10 13 14 14 12 14 17 17 15 11
103 73 136 313 20 39 92 124 65 99 226 261 301 207 131 105 32 2 356 352 352 353 357 358 359 359 2 12 8 1 360 360 5 7 11 13 14 14 15 15 16 16 16 12
34 114 5 52 62 240 340 148 161 208 199 228 344 271 132 85 48 1 347 350 351 355 356 356 357 11 26 9 0 1 1 7 8 6 13 13 10 12 17 17 17 15 12 11
178 66 304 172 172 122 60 80 113 103 103 209 215 257 172 71 20 354 357 359 1 4 4 9 16 23 8 10 9 9 8 9 10 10 12 13 14 11 14 15 16 15 15 15
123 137 227 232 140 124 200 221 198 176 195 216 236 270 196 237 335 3 6 4 13 16 23 30 35 19 12 13 12 8 9 12 9 9 12 13 10 9 9 14 17 16 17 18
129 215 206 249 233 207 238 240 211 220 232 240 347 214 173 75 358 5 7 9 21 25 25 20 17 13 16 12 10 13 15 11 11 13 13 13 11 13 16 17 16 17 15 22
52 175 145 252 95 176 255 257 246 242 246 252 258 275 151 138 78 22 27 21 32 20 20 18 15 11 13 12 11 11 10 13 12 13 14 14 15 16 15 15 16 18 22 22
144 142 116 256 343 302 266 250 194 191 215 223 217 204 170 185 214 98 37 33 22 26 19 11 7 6 13 14 13 12 11 16 21 23 22 20 18 16 15 14 15 19 22 26
142 113 64 289 339 260 66 249 226 209 214 172 126 172 186 114 76 129 64 42 25 28 14 359 358 15 19 21 24 28 33 31 28 25 22 19 17 15 14 15 19 23 25 23
76 128 101 283 246 308 206 179 168 195 242 193 183 177 181 162 146 181 85 7 3 27 5 349 10 16 22 35 37 33 30 27 24 24 19 16 15 15 16 19 21 24 25 23
75 73 135 135 237 256 122 179 160 143 273 183 185 186 195 179 251 148 140 304 342 356 343 357 20 30 32 39 28 24 25 26 25 21 16 15 17 20 20 21 25 28 27 25
149 147 204 163 251 278 206 166 153 236 53 171 186 186 189 232 98 134 195 236 327 336 330 25 43 43 44 33 19 21 24 26 20 17 15 18 22 26 27 29 31 31 31 29
176 160 187 170 214 271 159 138 200 171 143 167 179 202 200 200 183 168 197 214 309 314 54 60 47 37 33 24 15 16 23 22 17 14 13 19 24 28 30 31 33 34 34 32
204 198 186 202 217 190 189 203 204 169 173 180 188 194 193 178 191 201 200 205 313 335 101 67 43 35 32 25 19 17 26 23 18 15 17 21 25 28 29 30 30 31 32 30
231 186 230 183 201 221 220 222 216 199 191 171 173 177 166 190 188 194 184 206 273 285 118 78 50 44 30 28 23 24 27 27 21 22 23 26 27 30 30 31 29 29 29 27
215 160 188 253 255 261 240 228 216 198 182 176 172 157 156 177 188 191 196 210 214 152 127 77 64 50 43 40 31 33 34 34 30 28 30 33 33 34 33 31 31 32 31 28
190 190 186 228 221 215 207 241 213 202 193 190 178 153 178 186 188 200 205 209 171 141 121 92 81 63 54 45 39 42 41 39 38 37 38 37 37 37 37 38 35 33 32 33